Flag for Germany Weather past 2 weeks in Tuttlingen, Baden-Württemberg, Germany

Now
59 °F

Overcast.


Feels Like: 59 °F
Forecast: 44 / 60 °F
Wind: 1 mph from West

Location: Konstanz

Current Time: Aug 31, 2014 at 8:29:16 AM

Latest Report: Aug 31, 2014 at 8:00 AM


Visibility: 25 mi

Pressure: 30.01 "Hg

Humidity: 87%

Dew point: 55 °F

Location of TuttlingenLocation

Historic Weather in Tuttlingen — Graph

°F

Tuttlingen temperature yesterday

Maximum temperature yesterday: 75 °F (at 5:00 PM)
Minimum temperature yesterday: 61 °F (at 8:00 AM)
Average temperature yesterday: 66 °F

Past Weeks' High & Low Weather Summary

 TemperatureHumidityPressure
High75 °F (Aug 30, 5:00 PM)99% (Aug 28, 1:00 AM)30.21 "Hg (Aug 28, 1:00 AM)
Low48 °F (Aug 17, 7:00 AM)38% (Aug 21, 5:00 PM)29.75 "Hg (Aug 26, 7:00 PM)
Average61 °F74%30.01 "Hg
* Reported Aug 16 7:00 AM — Aug 31 7:00 AM, Tuttlingen, Weather by CustomWeather, © 2014

Note: Actual official high and low records may vary slightly from our data, if they occured in-between our weather recording intervals... More about our weather records

Advertising

Tuttlingen weather history for previous 24 hours

 ConditionsComfort  
Time TempWeatherWind HumidityBarometerVisibility
7:00 AM
Aug 31
58 °FOvercast.1 mph89%30.02 "Hg22 mi
6:00 AM59 °FOvercast.2 mph86%30.02 "Hg22 mi
5:00 AM58 °FOvercast.2 mph90%30.02 "Hg28 mi
4:00 AM58 °FPassing clouds.2 mph91%30.03 "Hg22 mi
3:00 AM59 °FPassing clouds.2 mph89%30.05 "Hg31 mi
2:00 AM59 °FClear.2 mph87%30.05 "Hg28 mi
1:00 AM60 °FPassing clouds.2 mph85%30.06 "Hg34 mi
12:00 AM61 °FClear.2 mph85%30.05 "Hg37 mi
11:00 PM
Aug 30
63 °FPassing clouds.2 mph74%30.06 "Hg43 mi
10:00 PM65 °FClear.2 mph69%30.06 "Hg40 mi
9:00 PM66 °FPassing clouds.2 mph67%30.05 "Hg43 mi
7:00 PM73 °FSunny.2 mph50%30.01 "Hg43 mi
6:00 PM74 °FSunny.3 mph48%30.01 "Hg28 mi
5:00 PM75 °FPassing clouds.2 mph47%30.01 "Hg31 mi
4:00 PM74 °FPassing clouds.3 mph53%30.03 "Hg28 mi
3:00 PM72 °FPassing clouds.2 mph55%30.05 "Hg28 mi
2:00 PM72 °FScattered clouds.2 mph57%30.07 "Hg25 mi
1:00 PM68 °FOvercast.2 mph68%30.10 "Hg22 mi
12:00 PM68 °FOvercast.1 mph75%30.11 "Hg19 mi
11:00 AM65 °FOvercast.1 mph78%30.11 "Hg16 mi
10:00 AM64 °FOvercast.1 mph86%30.11 "Hg19 mi
9:00 AM63 °FOvercast.2 mph89%30.11 "Hg16 mi
8:00 AM61 °FScattered clouds.1 mph93%30.11 "Hg12 mi
Weather by CustomWeather, © 2014

See weather overviewHow to use our weather pages